Weather History for Grand Island, NE

Change the Weather History Date:

Monday, November 19, 2012

  Actual Average Record
Temperature  
Mean Temperature 50 °F 36 °F  
Max Temperature 67 °F 47 °F 79 °F (2007)
Min Temperature 33 °F 25 °F 4 °F (1914)
Degree Days  
Heating Degree Days 15 29  
Month to date heating degree days 394 457  
Since 1 July heating degree days 915 980  
Cooling Degree Days 0 0  
Month to date cooling degree days 0 0  
Year to date cooling degree days 1507 1034  
Moisture  
Dew Point 33 °F    
Average Humidity 59    
Maximum Humidity 89    
Minimum Humidity 29    
Precipitation  
Precipitation 0.00 in 0.04 in 1.51 in (1975)
Month to date precipitation 0.49 0.78  
Year to date precipitation 9.85 25.64  
Snow  
Snow 0.00 in 0.10 in 4.40 in (1948)
Month to date snowfall 0.0 1.6  
Since 1 July snowfall T 2.7  
Since 1 September snowfall T 2.7  
Snow Depth 0.00 in    
Sea Level Pressure  
Sea Level Pressure 30.09 in    
Wind  
Wind Speed 9 mph (WNW)    
Max Wind Speed 16 mph    
Max Gust Speed 21 mph    
Visibility 10 miles    
Events      
T = Trace of Precipitation, MM = Missing Value Source: NWS Daily Summary

Daily Weather History Graph

Daily Weather History Graph

Search for Another Location

Airport:

Trip Planner

Search our weather history database for the weather conditions in past years. The results will help you decide how hot, cold, wet, or windy it might be!

Date:

Astronomy

Nov. 19, 2012 Rise Set
Actual Time 7:25 AM CST 5:11 PM CST
Civil Twilight 6:56 AM CST 5:41 PM CST
Nautical Twilight 6:22 AM CST 6:14 PM CST
Astronomical Twilight 5:49 AM CST 6:47 PM CST
Moon 12:28 PM CST (11/19) 11:41 PM CST (11/19)
Length of Visible Light 10h 44m
Length of Day
9h 45m
Waxing Crescent, 41% of the Moon is Illuminated
Nov 19
Waxing Crescent
Nov 20
First Quarter
Nov 28
Full
Dec 6
Last Quarter
Dec 13
New

Hourly Weather History & Observations

Time (CST) Temp. Windchill Dew Point Humidity Pressure Visibility Wind Dir Wind Speed Gust Speed Precip Events Conditions
12:53 AM 41.0 °F 36.4 °F 35.1 °F 79% 29.99 in 10.0 mi South 6.9 mph - N/A   Clear
1:53 AM 37.9 °F 34.4 °F 34.0 °F 86% 29.99 in 10.0 mi SSW 4.6 mph - N/A   Clear
2:53 AM 37.0 °F 32.4 °F 33.1 °F 86% 29.99 in 10.0 mi SSW 5.8 mph - N/A   Clear
3:53 AM 37.0 °F 32.4 °F 34.0 °F 89% 29.99 in 10.0 mi SW 5.8 mph - N/A   Clear
4:53 AM 37.0 °F 32.4 °F 34.0 °F 89% 30.01 in 10.0 mi WSW 5.8 mph - N/A   Clear
5:53 AM 35.1 °F 30.1 °F 30.9 °F 85% 30.02 in 10.0 mi WSW 5.8 mph - N/A   Clear
6:53 AM 34.0 °F 26.6 °F 30.9 °F 89% 30.04 in 10.0 mi West 9.2 mph - N/A   Clear
7:53 AM 37.0 °F 29.8 °F 32.0 °F 82% 30.06 in 10.0 mi West 10.4 mph - N/A   Clear
8:53 AM 44.1 °F 38.6 °F 36.0 °F 73% 30.08 in 10.0 mi WNW 10.4 mph - N/A   Clear
9:53 AM 50.0 °F - 37.0 °F 61% 30.09 in 10.0 mi NW 11.5 mph - N/A   Clear
10:53 AM 54.0 °F - 37.0 °F 53% 30.12 in 10.0 mi WNW 13.8 mph - N/A   Clear
11:53 AM 57.9 °F - 36.0 °F 44% 30.11 in 10.0 mi NW 13.8 mph - N/A   Clear
12:53 PM 63.0 °F - 36.0 °F 37% 30.09 in 10.0 mi NW 11.5 mph - N/A   Clear
1:53 PM 66.0 °F - 36.0 °F 33% 30.07 in 10.0 mi NNW 13.8 mph - N/A   Clear
2:53 PM 66.9 °F - 34.0 °F 30% 30.07 in 10.0 mi NNW 15.0 mph - N/A   Clear
3:53 PM 64.9 °F - 34.0 °F 32% 30.09 in 10.0 mi NW 11.5 mph - N/A   Clear
4:53 PM 57.9 °F - 35.1 °F 42% 30.11 in 10.0 mi WNW 6.9 mph - N/A   Clear
5:53 PM 50.0 °F - 33.1 °F 52% 30.14 in 10.0 mi West 8.1 mph - N/A   Clear
6:53 PM 50.0 °F - 33.1 °F 52% 30.17 in 10.0 mi NNW 8.1 mph - N/A   Clear
7:53 PM 44.1 °F 41.5 °F 30.9 °F 60% 30.18 in 10.0 mi NNW 4.6 mph - N/A   Clear
8:53 PM 41.0 °F 35.8 °F 30.0 °F 65% 30.20 in 10.0 mi NW 8.1 mph - N/A   Clear
9:53 PM 37.9 °F 34.4 °F 30.0 °F 73% 30.20 in 10.0 mi NW 4.6 mph - N/A   Clear
10:53 PM 37.0 °F 31.6 °F 28.9 °F 73% 30.19 in 10.0 mi West 6.9 mph - N/A   Clear
11:53 PM 35.1 °F 31.0 °F 28.0 °F 76% 30.19 in 10.0 mi West 4.6 mph - N/A   Clear